SCOUT A DEB, 31407

Orbit data source: Space-Track

SCOUT A DEB, 31407 is space debris in LEO originally from a launch on Thu, 19 May 1966 UTC launched from the Air Force Western Test Range (AFWTR). Debris objects in space refer to the collection of defunct objects orbiting the Earth. Examples of debris include non-operational satellites, rocket bodies, and fragments generated from explosions, collisions, or faulty payload assembly.

Loading next visibility...
SCOUT A DEB details
Identifier
31407, 1966-041H
Orbit
LEO
Last TLE update5 days ago
Origin
Flag of USUSN NAVAIR (US)
ManufacturerUnknown
MissionSpacecraft
Bus & MotorUnknown
MassUnknown
Launch date (UTC)
1966-05-19 (59 years ago)
Launch vehicleUnknown
Launch site
Air Force Western Test Range (AFWTR)
Object type
Payload
Rocket body
Debris
Shape & HBRUnknown
Radar Cross SectionSmall (<0.1 m²)

Expand to show TLE details & history

TLE from 5 days ago
0 SCOUT A DEB
1 31407U 66041H   24351.45575644  .00005434  00000-0  21320-2 0  9993
2 31407  90.1959  62.3777 0056345 261.2252  98.2560 14.28437864121804
Epoch: 2024-12-16T10:56Z
Definitive object data (Epoch: 2024-12-16T10:56:17.356Z)
Latitude0.00005°
Longitude172.72696°
Altitude806.054 km
Speed7.447 km/s
True Right ascension04h 09m 30s
True Declination0° 00' 00"
Sunlit
Object was in full shadow at TLE epoch
Visualization TLE readout
Latitude-87.76374°
Longitude-12.15298°
Altitude788.521 km
Speed7.478 km/s
Apparent Right ascension01h 50m 44s
Apparent Declination-67° 27' 27"
Sunlit
Object is in daylight
Visualization observer readout
Local Sidereal Time13:57:15
Azimuth178.648° S
Elevation-62.444°
Doppler factor1
Orbital elements
Apogee altitude834.304 km
Perigee altitude753.483 km
Semi-major axis7,172.03 km
Eccentricity0.0056345
Inclination90.1959°
RAAN62.3777°
Arg. of periapsis261.2252°
True anomaly98.89432°
Mean anomaly98.256°
Eccentric anomaly98.57522°
Mean motion3.57339 °/min
BSTAR0.002132
Orbital period100.74 mins
Loading maneuver chart data...
Loading historical data...
Loading historical data...
Loading historical data...
Loading historical data...
Loading historical data...
Loading historical data...
Loading historical data...

SCOUT A DEB Visibility forecast

Observer location: undefined°, undefined

Span
Click to sort rows by Start time (UTC) header in descending order
Start Az.
Max El. time (UTC)
Max El. Az.
Max El.
End time (UTC)
End Az.
7 mins2024-12-21 15:57:03.177Z40.129° NE2024-12-21 16:00:03.177Z79.065° E19.799°2024-12-21 16:04:03.177Z129.624° SE
8 mins2024-12-21 17:37:03.177Z344.687° N2024-12-21 17:41:03.177Z279.59° WNW34.721°2024-12-21 17:45:03.177Z212.773° SW
9 mins2024-12-22 04:55:03.177Z170.751° S2024-12-22 04:59:03.177Z88.455° E44.601°2024-12-22 05:04:03.177Z0.094° NNE
|